Wind_Speed
26 26 26 26 26 26 26 27 28 29 29 29 30 31 32 33 34 35 36 36 37 37 38 38 39 40 40 41 42 43 44 44 45 45 45 46 45 45 45 46 46 46 47
27 27 27 27 27 27 28 28 29 29 30 31 32 33 34 35 35 36 37 38 38 39 40 41 41 42 43 44 45 46 46 47 47 47 47 48 48 48 49 49 49 49 50
28 28 28 28 28 29 29 29 30 31 31 32 33 34 35 36 37 38 38 39 40 41 42 43 44 45 46 47 47 47 47 48 48 49 50 50 51 52 52 52 53 53 53
28 28 28 29 30 30 30 31 32 33 33 34 35 36 37 38 39 40 40 41 42 43 45 46 47 47 48 48 48 48 49 49 50 51 52 53 53 54 55 55 56 56 57
29 29 30 30 31 31 32 33 34 35 35 36 37 37 39 40 40 41 42 43 44 46 47 48 49 50 49 49 49 50 51 51 52 52 53 54 55 56 57 58 59 59 60
30 30 31 31 32 33 34 34 36 37 37 38 39 39 40 42 42 43 44 45 46 48 49 49 49 49 49 49 50 51 51 52 52 53 54 55 55 57 59 60 60 61 62
31 31 32 33 33 34 35 36 37 38 39 40 41 41 42 43 44 45 46 47 48 49 49 49 50 49 49 50 51 52 53 54 55 55 55 56 56 57 59 59 60 61 61
32 33 33 34 35 36 37 38 39 39 40 42 43 44 44 44 45 46 48 49 49 50 50 50 50 50 51 52 53 55 56 56 56 56 56 57 58 58 59 59 59 61 62
34 34 35 36 37 37 38 39 40 41 41 43 44 46 47 47 47 47 48 48 49 50 51 51 51 52 53 55 56 57 57 57 57 58 59 60 60 59 60 60 59 60 61
35 36 37 38 38 39 39 40 41 42 43 44 46 47 49 50 50 49 48 48 49 50 51 52 53 54 56 57 58 58 58 58 58 59 59 59 59 59 58 59 59 59 59
37 38 38 39 39 40 40 41 42 44 45 46 47 49 50 51 51 50 48 48 49 51 52 54 55 56 57 58 58 58 58 58 58 58 58 58 57 56 56 57 56 55 54
39 39 40 40 41 41 42 43 44 45 47 48 49 50 51 51 50 51 50 50 51 52 53 54 55 55 56 56 56 56 57 57 57 56 56 54 53 53 53 53 52 51 51
40 41 41 42 42 43 44 45 46 47 48 49 50 50 51 51 51 51 52 52 53 53 53 53 53 54 54 54 55 55 55 55 54 53 52 50 49 49 49 48 48 48 48
41 42 42 43 44 45 46 47 47 48 49 49 50 50 51 51 51 52 53 54 54 53 51 51 52 52 53 53 54 53 53 52 52 50 49 46 45 45 45 45 45 45 44
42 43 43 44 44 46 47 47 48 49 49 50 51 51 51 51 51 52 53 54 54 53 50 50 51 51 51 52 51 51 50 51 50 48 45 43 43 42 42 43 42 41 40
44 44 44 44 45 46 47 48 48 49 49 50 52 52 51 51 52 52 53 53 53 53 51 49 50 51 50 49 49 49 49 49 48 45 42 40 40 40 40 40 38 37 36
44 44 44 45 46 46 47 48 48 49 50 51 52 51 51 51 51 51 52 52 52 52 51 49 50 49 49 48 48 48 48 47 45 42 39 37 38 37 37 36 35 34 32
45 45 45 46 46 47 48 48 49 50 51 51 51 51 51 51 51 51 51 51 50 50 50 49 48 47 48 47 47 46 45 43 41 39 37 37 36 35 34 33 33 31 30
45 45 46 46 47 48 48 49 50 51 51 51 51 51 50 50 50 50 50 50 49 49 50 49 47 46 46 46 45 44 42 40 39 37 36 35 34 33 31 32 31 29 27
46 46 46 47 48 49 49 50 51 51 51 52 51 50 49 49 49 49 48 48 48 48 48 47 46 45 45 44 43 41 38 37 36 35 35 33 32 31 30 31 29 28 26
46 46 47 48 49 49 50 50 51 51 51 51 50 49 49 48 48 47 47 46 47 47 46 45 44 43 43 41 40 39 36 35 34 33 33 31 30 30 30 30 29 27 25
47 47 48 49 49 50 50 51 51 51 51 50 49 48 48 47 47 46 46 46 46 46 45 44 43 42 41 40 38 37 36 34 31 31 30 30 29 29 28 28 27 26 24
48 48 49 49 49 50 51 51 52 51 50 49 48 47 47 46 46 45 44 45 45 45 45 45 43 40 39 38 36 35 34 33 31 30 30 29 28 27 26 26 25 23 21
48 48 49 49 50 50 51 51 52 50 48 48 47 46 45 45 44 44 44 44 44 43 43 43 41 38 36 35 34 33 32 31 29 29 28 26 24 23 22 23 22 19 17
48 49 49 50 50 51 51 51 50 48 47 46 46 45 45 44 44 44 44 43 42 41 41 39 37 35 34 34 33 32 31 29 27 25 25 24 22 21 20 19 19 17 15
48 49 50 50 50 50 51 50 48 46 45 44 44 44 44 43 43 43 43 43 41 40 38 36 34 33 33 32 32 31 29 27 25 24 23 22 21 20 18 16 16 15 13
Wind_Direction
273 275 277 278 279 280 282 283 285 286 287 288 290 291 292 293 294 294 294 294 294 294 294 294 293 293 293 292 291 291 290 289 288 286 285 284 283 283 282 281 281 280 279
274 276 277 278 279 280 282 284 285 287 288 289 291 292 293 293 294 294 295 295 295 295 294 294 293 293 293 292 291 291 290 289 288 286 285 284 283 283 282 281 280 279 278
274 275 276 278 279 280 282 283 285 287 289 290 291 292 293 294 294 295 295 295 295 295 294 294 294 293 293 293 292 291 290 289 287 286 285 284 283 283 282 281 280 279 278
274 275 276 278 279 280 282 283 285 287 288 290 291 292 293 294 295 295 295 296 296 295 295 295 294 294 294 293 292 291 290 289 288 287 286 285 284 283 282 281 280 279 278
274 275 277 278 279 280 282 284 285 287 288 290 291 293 293 294 295 295 295 296 296 296 295 295 295 295 295 293 293 293 292 291 290 288 287 286 285 284 283 282 280 279 278
274 276 277 279 280 281 283 284 286 287 289 290 292 293 294 294 294 295 295 295 296 296 296 296 296 296 295 294 294 293 293 292 291 290 289 289 288 286 285 283 282 280 278
275 276 277 279 280 282 283 285 286 288 289 290 291 292 293 294 294 295 295 295 296 296 297 298 297 296 295 295 294 294 293 292 292 291 291 290 290 289 287 285 283 282 280
275 277 278 280 281 283 284 285 287 288 290 291 292 293 293 293 294 295 295 295 296 296 297 298 298 297 296 296 295 295 294 293 292 292 292 291 290 289 289 287 285 283 281
276 278 280 281 283 284 285 286 287 289 290 292 293 294 294 294 295 295 295 295 296 297 297 297 297 297 297 297 297 296 295 295 294 293 293 292 291 291 290 289 287 285 283
276 279 281 282 284 285 285 286 288 290 291 293 294 295 296 296 296 296 296 296 297 298 298 298 297 297 298 298 298 298 297 297 296 296 295 293 293 292 291 290 288 287 285
276 279 281 282 284 285 286 287 289 291 292 294 295 296 297 298 297 297 297 296 297 298 298 299 299 298 299 299 300 299 299 298 298 298 297 295 294 294 293 292 290 288 286
277 279 281 282 284 285 286 288 290 291 293 294 295 296 297 298 297 297 297 297 298 298 299 300 300 299 300 300 301 301 300 300 300 299 298 296 295 295 295 293 291 290 289
277 279 281 282 283 285 286 288 290 292 293 294 296 297 298 298 298 298 298 299 299 300 300 301 300 300 301 302 302 302 302 302 302 301 299 297 296 296 296 296 294 292 290
277 279 281 282 283 285 286 288 290 292 293 294 296 297 298 298 298 299 300 300 301 301 301 301 301 301 302 303 303 303 303 304 303 302 300 299 298 297 297 296 296 294 293
278 280 281 283 284 286 288 289 291 292 293 294 296 297 297 297 298 300 301 302 303 303 303 302 302 303 304 304 304 304 304 305 304 302 300 299 299 299 299 299 299 297 295
278 280 282 284 285 287 288 290 292 292 293 294 295 296 296 297 299 301 302 302 303 304 304 304 303 304 305 306 306 306 306 307 306 303 301 300 301 301 300 301 302 301 298
279 280 283 284 286 287 289 291 292 293 294 295 296 296 296 297 299 300 301 302 303 304 305 305 305 305 305 306 307 307 307 307 306 304 303 303 303 303 302 301 302 302 300
278 280 283 284 286 288 289 291 292 293 295 296 296 296 296 297 298 299 301 302 303 304 305 306 307 306 305 306 307 308 308 307 306 305 304 305 306 305 304 303 304 303 302
278 280 283 284 286 288 289 291 292 294 295 296 296 297 297 297 298 299 300 301 302 303 304 306 307 307 307 307 308 309 309 307 307 306 306 308 308 307 305 305 306 306 304
278 280 283 284 286 288 289 291 293 294 295 295 296 297 297 297 298 299 300 300 302 303 304 306 306 307 308 307 307 309 308 306 306 305 306 307 307 306 306 307 308 306 305
279 280 283 285 287 288 289 291 293 294 295 295 295 296 296 297 298 299 300 301 302 303 305 306 307 308 308 307 307 308 308 307 305 305 306 306 306 305 306 307 307 305 304
279 281 283 285 286 287 289 291 292 294 294 294 294 295 295 296 297 299 300 301 303 304 305 306 307 308 308 308 308 308 308 308 305 306 306 305 304 305 306 306 305 305 302
279 281 283 285 286 287 289 290 292 293 293 293 293 294 294 295 297 298 299 301 302 303 304 305 306 307 308 308 308 308 309 309 306 306 305 305 305 307 307 307 307 305 300
279 281 283 285 286 287 289 290 291 292 292 291 292 293 293 295 296 297 298 300 301 302 303 305 306 307 307 308 309 308 309 310 306 306 306 307 308 309 310 309 308 306 303
279 282 284 285 286 287 288 289 290 291 291 291 291 292 293 294 295 296 298 299 300 301 303 304 305 306 307 308 308 308 308 308 307 307 307 307 308 307 307 308 311 309 305
280 282 284 285 286 287 288 289 290 290 291 291 290 291 293 294 295 296 297 298 298 299 300 300 302 304 306 308 308 309 308 307 307 308 308 307 306 304 303 306 309 309 307
Height
5819 5819 5819 5819 5818 5818 5818 5817 5816 5815 5814 5813 5812 5811 5809 5807 5805 5803 5801 5799 5797 5795 5793 5791 5788 5786 5784 5781 5779 5777 5775 5772 5770 5768 5766 5765 5763 5761 5760 5758 5757 5756 5755
5814 5814 5814 5813 5813 5812 5812 5811 5810 5810 5808 5807 5806 5804 5802 5800 5798 5796 5794 5791 5789 5786 5784 5782 5779 5777 5774 5771 5769 5766 5764 5761 5759 5757 5755 5753 5751 5749 5748 5746 5745 5744 5743
5808 5808 5808 5808 5807 5807 5806 5805 5804 5803 5802 5800 5799 5797 5795 5793 5790 5788 5786 5783 5780 5777 5775 5772 5769 5766 5763 5760 5757 5754 5752 5749 5747 5744 5742 5740 5738 5736 5734 5732 5731 5730 5729
5802 5802 5802 5802 5801 5800 5800 5799 5798 5796 5795 5793 5792 5790 5787 5785 5782 5780 5777 5774 5771 5768 5765 5761 5758 5755 5752 5748 5745 5742 5739 5736 5733 5731 5728 5726 5724 5721 5719 5717 5716 5714 5713
5796 5796 5796 5795 5794 5794 5793 5792 5791 5789 5788 5786 5784 5782 5779 5777 5774 5771 5768 5764 5760 5757 5754 5750 5746 5743 5739 5735 5732 5729 5726 5723 5720 5717 5714 5711 5709 5706 5703 5701 5699 5697 5696
5790 5790 5789 5788 5788 5787 5786 5784 5783 5781 5779 5778 5776 5774 5771 5768 5765 5762 5758 5754 5750 5746 5742 5738 5734 5730 5727 5723 5720 5716 5713 5709 5706 5702 5699 5696 5693 5690 5686 5684 5681 5679 5677
5783 5783 5782 5781 5780 5779 5778 5777 5775 5773 5771 5768 5767 5765 5763 5759 5756 5752 5748 5744 5739 5735 5730 5726 5722 5718 5715 5711 5707 5703 5699 5696 5692 5688 5684 5681 5677 5673 5670 5666 5663 5661 5659
5776 5776 5775 5774 5773 5772 5770 5768 5766 5764 5762 5759 5756 5754 5752 5751 5747 5742 5737 5732 5728 5723 5719 5714 5710 5706 5702 5698 5694 5690 5685 5681 5677 5673 5669 5665 5661 5657 5653 5648 5645 5643 5640
5769 5768 5767 5766 5765 5763 5762 5760 5757 5755 5753 5750 5746 5743 5739 5737 5735 5732 5727 5722 5716 5712 5707 5702 5698 5693 5689 5685 5680 5675 5670 5665 5661 5657 5652 5648 5644 5640 5636 5631 5628 5624 5621
5761 5760 5759 5758 5756 5755 5753 5751 5748 5746 5743 5740 5736 5732 5728 5723 5720 5719 5716 5711 5705 5700 5695 5690 5685 5680 5675 5670 5665 5660 5655 5650 5645 5640 5635 5631 5627 5623 5618 5613 5609 5605 5602
5753 5752 5751 5749 5747 5746 5744 5741 5739 5736 5733 5729 5725 5721 5717 5712 5707 5703 5703 5700 5695 5689 5683 5678 5672 5667 5661 5656 5651 5645 5640 5635 5630 5624 5619 5614 5610 5606 5601 5596 5592 5588 5585
5744 5743 5742 5740 5738 5736 5734 5732 5729 5726 5722 5718 5714 5710 5705 5701 5696 5692 5689 5686 5683 5678 5672 5666 5659 5653 5648 5642 5637 5631 5626 5620 5614 5609 5603 5598 5594 5590 5586 5581 5576 5572 5569
5736 5734 5733 5731 5729 5726 5724 5721 5718 5715 5711 5707 5703 5698 5694 5689 5684 5680 5675 5672 5669 5666 5660 5654 5646 5640 5635 5629 5624 5618 5612 5606 5600 5594 5589 5584 5580 5576 5571 5567 5562 5558 5555
5726 5725 5723 5721 5719 5716 5714 5711 5707 5704 5700 5696 5692 5687 5683 5678 5673 5668 5663 5658 5655 5653 5648 5642 5635 5628 5623 5617 5611 5605 5599 5593 5587 5582 5576 5572 5567 5563 5559 5554 5550 5546 5542
5716 5714 5712 5710 5708 5705 5702 5699 5696 5692 5688 5684 5680 5676 5671 5667 5662 5656 5651 5645 5640 5637 5636 5631 5624 5617 5611 5605 5598 5592 5587 5581 5575 5570 5565 5561 5556 5552 5548 5543 5539 5535 5531
5706 5704 5702 5700 5697 5694 5691 5688 5685 5681 5677 5673 5668 5664 5660 5655 5650 5645 5640 5634 5628 5623 5621 5618 5612 5605 5599 5593 5587 5581 5576 5570 5564 5559 5554 5550 5546 5542 5538 5534 5530 5526 5522
5695 5694 5692 5689 5687 5684 5681 5677 5674 5670 5666 5661 5657 5652 5648 5644 5639 5634 5629 5624 5618 5612 5608 5606 5600 5594 5588 5582 5577 5571 5565 5560 5554 5549 5545 5541 5536 5532 5529 5525 5521 5518 5514
5685 5683 5681 5679 5676 5673 5670 5666 5663 5659 5654 5650 5645 5641 5637 5632 5628 5623 5618 5613 5608 5602 5597 5594 5590 5584 5578 5572 5567 5562 5556 5550 5546 5541 5537 5533 5529 5524 5521 5517 5514 5510 5507
5674 5672 5670 5668 5665 5662 5659 5655 5651 5647 5643 5638 5634 5629 5625 5621 5617 5612 5607 5602 5597 5592 5587 5583 5579 5574 5568 5563 5558 5553 5547 5542 5538 5533 5530 5526 5521 5518 5514 5510 5507 5503 5500
5663 5661 5659 5656 5654 5651 5647 5643 5640 5635 5631 5626 5622 5618 5614 5610 5605 5601 5597 5592 5587 5583 5578 5573 5569 5564 5559 5554 5549 5544 5540 5535 5531 5526 5522 5518 5515 5511 5508 5504 5501 5498 5494
5652 5650 5648 5645 5642 5639 5635 5632 5628 5624 5619 5615 5611 5607 5603 5598 5594 5590 5586 5581 5577 5572 5568 5563 5559 5555 5550 5545 5541 5536 5532 5528 5524 5520 5516 5512 5509 5506 5502 5499 5495 5492 5489
5640 5638 5636 5633 5630 5627 5623 5620 5616 5612 5608 5604 5600 5596 5592 5588 5584 5580 5575 5571 5566 5562 5558 5554 5550 5546 5541 5537 5532 5528 5524 5521 5518 5515 5510 5507 5503 5500 5497 5493 5490 5487 5484
5629 5627 5624 5621 5618 5615 5611 5608 5604 5600 5596 5592 5588 5585 5581 5577 5573 5570 5566 5562 5557 5552 5548 5544 5541 5537 5533 5529 5525 5521 5517 5513 5510 5507 5504 5502 5498 5495 5491 5488 5485 5483 5480
5617 5615 5612 5609 5606 5603 5599 5596 5592 5588 5584 5580 5577 5573 5570 5567 5563 5560 5557 5553 5548 5544 5539 5535 5532 5528 5524 5521 5517 5513 5510 5507 5504 5501 5498 5496 5493 5490 5487 5484 5481 5479 5477
5605 5603 5600 5597 5594 5591 5587 5583 5580 5576 5573 5569 5566 5562 5559 5556 5553 5550 5546 5543 5539 5535 5531 5527 5524 5520 5516 5513 5510 5507 5504 5501 5499 5496 5492 5490 5488 5486 5483 5480 5478 5475 5474
5593 5591 5588 5585 5582 5579 5575 5571 5568 5565 5562 5559 5555 5552 5548 5545 5542 5539 5536 5533 5530 5527 5523 5520 5516 5513 5510 5507 5503 5500 5498 5494 5492 5491 5488 5485 5483 5481 5480 5478 5475 5473 5472